Theta_e
290 291 291 291 290 289 289 290 289 289 289 289 289 289 290 290 290 290 290 290 290 289 289 289 289 289 289 291 291 292 292 292 293 293 293 293 293 293 293 294 294 294 294 294 295 295 295 295 295 295 295 295 295 296 296 296 296 296 297 297 297 298 298 298 299 299 299 300 300 300 300 300 300 300 300 300 300 300 300 300 301 301 301 301 301 302
289 290 290 290 289 288 288 289 289 289 288 288 288 289 289 289 289 289 289 290 289 289 289 288 288 288 288 289 291 292 292 292 293 293 293 293 293 293 293 294 294 294 294 294 294 294 295 295 295 295 295 295 295 295 295 296 296 296 296 296 297 297 297 298 298 298 299 299 299 299 299 299 299 299 299 300 300 300 300 300 300 300 300 300 301 301
289 289 289 290 289 288 288 289 289 289 288 288 288 288 288 288 288 288 288 289 289 289 288 288 288 288 288 289 290 291 292 292 292 292 293 293 293 293 293 294 294 294 294 294 294 294 294 294 294 294 295 295 295 295 295 295 295 296 296 296 296 296 297 297 297 297 297 298 298 298 298 298 298 298 299 299 299 299 299 300 300 300 300 300 300 300
289 289 289 289 289 289 288 288 289 289 289 289 289 288 288 288 288 288 288 288 288 288 288 288 288 288 288 289 290 291 292 292 292 292 293 293 293 293 293 293 294 294 294 294 294 294 294 294 294 294 294 295 295 295 295 295 295 295 295 296 296 296 296 296 296 297 297 297 297 297 297 297 298 298 298 298 299 299 299 299 299 299 299 299 299 299
289 289 289 289 288 288 289 289 289 289 289 289 288 288 288 288 288 288 288 288 288 288 288 288 288 288 288 288 289 291 292 292 292 292 292 292 293 293 293 293 293 293 293 294 294 294 294 294 294 294 295 295 295 295 295 295 295 295 295 295 295 296 296 296 296 296 296 296 296 297 297 297 297 297 297 297 297 298 298 298 298 298 298 298 298 299
289 289 289 289 288 288 288 289 289 289 288 288 288 288 288 288 288 288 288 288 288 288 288 288 288 288 288 288 289 290 291 292 292 292 292 292 293 293 293 293 293 293 293 293 294 294 294 294 294 294 294 295 295 295 295 295 295 295 295 295 295 295 295 295 295 295 296 296 296 296 296 296 296 296 296 297 297 297 297 297 297 297 298 298 298 298
288 289 289 288 288 288 288 288 288 288 287 287 287 287 287 288 288 288 288 288 288 288 288 288 288 288 288 288 289 290 291 291 291 292 292 292 292 292 293 293 293 293 293 293 293 294 294 294 294 294 294 294 294 295 295 295 295 294 294 294 295 295 295 295 295 295 295 295 295 295 295 295 295 295 295 295 296 296 296 296 297 297 297 297 298 298
287 288 288 288 287 287 287 288 288 288 288 287 286 286 286 287 287 287 288 288 288 288 287 287 287 287 287 288 288 289 289 290 290 290 291 291 292 292 292 292 292 293 293 293 293 293 294 294 294 294 294 294 294 294 294 294 294 294 294 294 294 294 294 294 294 294 294 294 294 294 294 294 294 295 295 295 295 295 295 296 296 297 297 297 298 298
286 286 287 287 287 286 286 287 287 288 288 287 286 286 285 285 286 286 287 287 287 287 287 286 286 286 287 287 288 288 289 289 289 289 289 289 290 290 291 292 292 293 293 293 293 293 293 294 294 294 294 294 294 294 294 294 294 294 294 294 294 294 294 294 294 294 294 293 294 294 294 294 294 294 294 294 294 294 295 295 295 296 297 297 297 298
286 286 286 286 287 286 286 286 287 288 289 288 287 286 286 285 285 285 285 285 286 287 287 286 286 285 286 287 287 288 289 289 290 290 291 290 290 291 291 292 292 292 293 293 293 293 293 293 294 294 294 294 294 294 294 293 293 293 293 293 293 293 293 293 293 293 293 293 293 293 293 293 294 294 294 294 294 294 294 295 295 295 296 297 297 298
286 286 286 286 287 287 287 287 287 288 289 288 287 287 286 286 285 284 284 284 285 285 286 286 285 285 285 286 287 287 288 288 289 290 291 291 291 292 292 292 292 292 293 293 293 293 293 293 293 293 293 293 293 293 293 293 292 293 292 292 292 293 292 292 292 293 293 293 293 293 293 293 293 293 294 294 294 294 294 294 295 295 296 296 297 297
285 286 286 286 286 286 287 287 287 288 287 286 285 285 285 286 286 285 284 283 283 284 284 285 285 285 285 285 286 287 287 287 287 288 288 289 290 290 290 290 291 291 291 292 292 292 292 293 293 292 292 292 292 292 292 292 292 292 292 292 292 292 292 292 292 292 292 292 293 293 293 293 293 293 294 294 294 294 294 294 294 295 295 296 296 297
286 286 286 286 286 286 286 286 286 286 286 285 284 283 284 285 286 286 284 283 283 284 284 284 284 285 286 286 286 286 286 286 287 287 287 288 288 288 288 288 288 289 289 289 289 290 291 291 292 292 292 292 292 292 292 292 292 292 292 292 292 292 292 292 292 292 292 292 292 292 293 293 293 293 293 294 294 294 294 294 294 294 295 295 296 296
285 285 285 285 285 285 285 285 285 284 284 284 284 284 285 285 285 285 284 283 283 284 284 283 283 284 285 286 286 287 286 286 286 287 287 287 288 288 288 287 287 287 288 287 287 288 290 290 290 290 291 291 291 291 291 291 291 291 291 292 292 292 292 292 292 292 292 292 292 292 293 293 293 293 293 293 293 293 294 294 294 294 294 295 295 296
285 285 284 284 284 285 285 285 285 284 284 285 285 285 285 285 285 284 283 283 283 283 283 283 282 283 284 285 286 287 287 286 286 286 286 286 287 288 288 287 287 287 287 287 287 287 289 289 288 288 288 289 289 290 290 291 291 291 292 291 292 292 292 292 292 292 292 292 292 292 293 293 293 293 293 293 293 293 293 293 294 294 294 294 295 295
285 285 284 284 284 284 285 285 284 284 284 285 285 285 284 284 284 283 283 282 282 282 282 281 281 281 283 285 286 287 287 286 286 285 285 285 286 287 288 287 286 286 286 286 286 286 287 287 287 287 287 289 290 290 291 291 291 291 292 292 292 292 292 292 292 292 292 292 292 292 292 293 293 293 293 293 293 293 293 293 293 294 294 294 294 294
285 284 284 283 283 284 285 285 285 284 284 285 285 285 284 284 283 283 282 282 282 281 281 280 280 280 281 283 285 287 287 286 286 285 285 285 285 287 287 286 285 285 285 286 286 286 286 287 287 287 287 289 290 291 291 291 291 292 292 292 292 292 292 292 292 292 292 292 292 292 292 292 293 293 293 293 293 293 293 293 293 293 294 294 294 294
284 284 284 283 283 284 284 284 285 284 285 284 284 284 284 284 284 283 282 282 281 281 281 281 281 280 280 281 283 286 288 286 286 285 284 284 285 286 287 286 285 285 285 285 286 286 286 286 287 287 288 290 291 291 291 291 291 292 292 292 292 292 292 292 292 292 292 292 292 292 292 292 292 293 292 292 293 293 293 293 293 293 293 294 294 294
284 284 284 284 284 284 284 284 284 284 284 284 283 283 283 283 283 283 282 282 282 281 281 281 281 281 281 282 283 285 287 287 286 284 283 283 284 285 286 286 285 285 284 285 285 286 286 286 287 289 290 291 291 291 291 291 292 292 292 292 292 292 292 292 292 292 292 292 292 292 292 292 292 292 292 292 292 293 293 293 293 293 293 293 293 294
284 284 284 284 284 284 284 284 284 284 284 284 284 283 283 283 283 283 283 282 283 283 282 282 282 282 282 283 284 286 287 286 285 284 282 282 283 284 285 285 284 284 284 284 285 286 286 286 287 288 290 291 291 291 291 292 292 292 292 292 292 292 292 292 292 292 292 292 292 292 292 292 292 292 292 292 292 292 292 292 293 293 293 293 293 293
284 284 285 285 284 284 283 284 285 285 286 285 285 284 283 283 283 282 282 283 283 283 283 283 283 283 283 284 284 285 286 286 284 283 282 282 282 283 284 284 284 283 283 284 285 286 286 286 286 287 289 290 291 291 291 292 292 292 292 292 292 292 292 292 292 292 292 292 292 292 292 292 292 292 292 292 292 292 292 292 292 292 293 293 293 293
284 284 285 285 285 285 284 285 285 286 286 286 285 284 283 282 282 282 282 283 283 283 283 283 284 284 285 285 285 286 286 285 284 283 282 281 281 282 284 284 284 283 283 284 285 286 286 286 286 287 289 290 291 291 291 292 292 292 292 292 292 292 292 292 292 292 292 292 292 292 292 292 292 292 292 292 292 292 292 292 292 292 292 292 293 293
285 285 286 286 286 286 285 285 285 286 286 286 285 284 283 283 283 283 283 284 284 284 284 284 285 285 285 284 285 285 286 286 285 284 282 281 280 282 284 284 284 283 283 283 284 285 286 286 286 287 288 290 291 291 291 291 291 292 292 292 292 292 292 292 292 292 292 292 292 292 292 292 292 292 292 292 292 292 292 292 292 292 292 292 292 292
286 286 286 286 286 286 286 286 286 286 286 286 285 285 285 286 286 286 286 286 285 284 284 284 283 283 283 283 284 284 285 285 285 284 283 281 281 282 283 284 283 283 283 284 284 285 285 285 286 286 287 289 290 291 291 291 291 291 291 291 292 291 291 292 292 292 292 292 292 292 292 292 292 292 292 292 292 292 292 292 291 292 292 292 292 292
286 286 286 286 286 287 286 286 286 286 286 286 287 287 287 287 287 287 286 285 284 284 283 282 282 281 281 282 283 283 284 285 285 284 283 281 281 282 283 283 283 282 282 283 284 285 284 285 285 286 286 287 289 290 290 291 291 291 291 291 291 291 291 291 291 291 292 292 292 292 292 292 292 292 292 292 292 292 291 291 291 291 291 291 291 291
287 287 287 287 288 288 288 288 288 288 288 288 287 287 287 287 286 285 284 283 283 282 282 280 280 280 280 281 281 282 283 284 285 285 283 282 281 281 282 283 283 282 282 283 284 284 284 284 284 285 285 286 288 289 290 290 290 291 291 291 291 291 291 291 291 291 291 291 291 291 291 292 291 291 291 291 291 291 291 291 291 291 291 291 291 291
288 288 288 288 288 288 288 288 288 288 289 288 288 287 287 286 284 283 282 282 282 281 280 279 279 279 280 280 280 281 283 284 284 284 284 282 281 280 281 282 282 282 282 282 283 284 284 284 284 284 284 285 286 288 289 290 290 290 291 290 291 291 291 291 291 291 291 291 291 291 291 291 291 291 291 291 291 291 291 291 291 291 291 291 290 290
287 287 287 287 287 288 288 288 288 288 288 288 288 288 287 285 283 281 281 281 281 281 280 279 279 279 279 279 280 281 282 283 283 284 284 282 281 280 281 282 283 282 282 282 283 284 284 284 284 284 284 285 285 286 288 289 290 290 290 290 290 290 290 290 290 290 291 291 291 291 291 291 291 291 291 291 291 291 291 291 291 291 291 290 289 288
287 287 287 287 287 287 287 287 287 287 288 288 288 288 287 285 283 281 281 282 281 281 280 279 279 279 279 279 280 280 281 281 283 283 284 282 281 280 281 282 282 282 281 281 281 282 282 283 283 283 284 285 285 286 286 287 288 288 288 289 289 289 289 290 290 290 290 290 290 291 291 291 291 291 291 291 291 291 291 291 291 290 289 289 288 287
285 286 286 286 286 286 286 286 286 286 287 287 288 287 287 285 284 282 282 282 281 281 279 279 279 279 279 279 279 279 279 280 283 284 284 282 280 280 281 281 281 281 281 280 279 279 279 281 282 283 284 285 285 284 284 285 285 286 286 287 287 288 289 289 289 289 290 290 290 290 290 291 291 291 291 291 291 291 291 291 290 289 288 287 287 286
283 283 283 284 284 285 285 285 285 285 286 286 287 286 286 285 284 283 283 283 282 281 280 280 279 279 279 278 277 277 277 280 283 285 284 282 280 280 281 281 281 281 282 280 279 277 277 279 281 282 283 283 283 283 284 284 284 284 284 285 285 286 288 288 289 289 289 289 290 290 290 290 290 290 290 291 291 291 291 291 290 289 287 286 286 286
283 283 283 283 283 283 284 284 284 284 284 284 284 285 285 284 284 284 284 283 282 282 281 280 280 279 279 278 277 277 277 280 282 284 284 281 281 281 281 280 280 281 282 281 279 278 277 277 279 281 282 282 282 283 283 284 284 284 284 284 284 285 287 288 288 288 288 289 289 290 290 290 290 290 290 290 290 290 290 290 290 289 287 286 285 285
282 282 282 282 282 283 283 283 283 283 283 283 283 284 284 284 284 284 284 283 283 282 281 280 280 279 279 279 278 278 279 280 282 284 284 282 281 281 281 280 280 280 281 281 280 279 278 278 279 280 280 281 281 282 282 283 283 284 284 283 283 284 285 286 287 287 287 288 288 289 289 289 289 290 290 290 290 290 290 290 290 289 288 286 285 285
282 282 282 282 282 282 282 282 282 283 283 283 283 283 283 284 284 284 283 283 283 282 282 281 280 279 279 279 278 279 279 280 283 284 284 282 281 280 280 280 280 280 280 280 280 279 279 279 279 279 279 280 281 282 282 282 283 283 283 283 283 283 284 285 285 285 285 286 286 286 287 287 288 289 289 289 289 290 290 290 290 290 289 288 286 286
281 281 281 281 281 281 281 282 282 283 283 283 283 283 283 283 283 283 283 283 283 283 282 282 281 280 280 279 278 278 279 280 282 284 284 283 281 280 280 280 279 279 279 279 278 278 278 278 279 279 279 279 280 280 281 282 283 283 283 283 283 283 283 284 284 284 284 284 284 284 285 285 286 287 287 288 289 289 289 290 290 290 290 289 288 287
280 280 280 280 281 281 281 282 282 282 282 283 283 283 283 283 283 283 283 283 283 282 283 282 282 282 281 280 279 279 279 280 282 283 284 283 281 280 279 279 280 279 279 278 278 278 277 277 278 279 279 278 278 279 280 281 282 282 282 283 283 283 283 284 284 283 283 283 283 284 284 284 285 285 286 288 289 289 289 290 290 290 290 290 290 289
279 279 280 280 281 281 281 282 282 282 282 282 282 282 282 282 282 282 282 282 282 282 282 282 282 282 282 282 281 280 280 281 282 282 283 282 281 280 279 279 280 280 279 278 278 278 277 277 277 278 278 277 277 278 279 280 281 281 281 282 282 282 283 283 283 283 283 283 283 283 284 284 285 285 286 288 288 289 289 289 289 289 289 289 290 290
279 279 280 280 281 281 281 281 281 281 281 282 282 282 282 282 282 282 282 282 282 282 281 282 282 282 283 283 282 282 282 282 282 281 282 282 281 281 280 279 280 280 280 279 278 278 277 277 276 276 276 277 278 279 279 280 280 280 280 281 282 282 282 283 283 283 283 283 284 284 285 285 285 285 285 286 286 286 286 286 287 288 289 289 289 289
278 279 280 280 280 281 281 281 281 281 281 282 282 282 282 282 282 282 282 282 281 281 281 281 281 281 281 281 282 282 282 282 281 280 280 281 281 281 280 279 279 280 280 280 279 279 278 277 276 276 276 277 277 278 279 279 279 279 280 281 281 281 282 282 283 283 283 283 283 284 284 284 284 284 284 284 284 284 284 284 285 286 286 286 286 287
279 279 279 280 281 281 281 281 281 281 281 282 282 282 282 281 281 281 281 281 282 282 282 282 282 282 282 282 282 283 282 282 282 281 281 280 281 281 281 280 280 280 280 280 280 279 278 278 277 278 278 277 277 278 278 279 279 280 280 280 280 280 281 282 282 283 283 282 282 283 283 283 283 284 284 284 284 284 284 284 284 285 285 285 284 284
279 279 279 280 281 281 282 282 282 282 281 281 281 281 281 281 281 280 281 281 281 281 281 282 282 281 282 282 282 282 282 282 282 282 281 280 280 281 281 281 280 280 280 280 280 280 279 279 278 278 278 278 278 278 279 279 280 281 281 280 279 280 281 282 282 282 282 282 282 283 283 283 284 284 284 284 284 284 284 284 284 285 285 285 284 284
279 279 279 280 280 281 281 282 282 282 281 281 280 280 280 280 280 280 280 280 280 280 280 280 280 280 280 280 281 281 282 282 282 282 281 281 280 281 281 281 281 281 281 280 280 280 280 280 279 279 278 278 278 278 278 279 280 280 281 280 280 281 281 282 282 282 282 282 282 283 284 283 283 283 284 284 284 284 285 285 285 285 285 285 285 284
279 279 280 280 280 281 281 281 281 281 281 280 280 280 280 280 280 280 279 279 279 279 280 280 279 279 278 279 279 280 281 281 282 282 282 282 281 281 282 282 282 282 281 280 280 280 280 281 280 280 280 279 279 278 278 279 279 280 281 281 281 280 279 279 281 281 282 282 282 282 283 283 283 283 283 284 284 284 285 285 286 287 286 285 285 285
279 280 280 280 280 280 281 280 280 280 280 279 279 279 280 280 280 280 279 279 279 279 279 279 279 279 278 278 278 279 279 280 281 282 283 283 283 283 283 283 283 283 282 281 280 280 280 280 280 280 281 280 280 279 279 279 279 279 280 281 281 280 279 279 280 281 281 282 282 282 282 283 283 283 284 284 284 284 284 285 285 285 286 286 285 285
279 280 280 280 280 280 279 279 279 280 279 279 279 279 279 280 280 280 279 279 279 279 279 279 279 278 277 277 278 278 279 280 281 281 282 283 285 285 285 284 284 283 283 283 282 281 280 280 280 281 281 281 280 280 279 279 279 280 280 281 281 281 281 281 281 281 281 281 282 282 283 283 283 283 283 283 283 284 284 284 284 284 285 285 285 285
279 279 279 279 279 279 279 279 279 279 279 279 279 279 279 279 280 279 279 279 278 278 279 279 278 277 276 277 277 278 278 278 279 280 281 282 283 284 284 284 284 284 283 283 283 282 282 281 281 281 281 281 280 280 280 280 279 279 280 280 281 281 281 281 282 282 282 282 282 282 283 283 283 283 282 282 283 283 284 284 284 284 285 285 285 285
279 278 278 278 278 278 278 279 279 278 278 278 278 279 279 279 279 279 279 279 279 278 279 279 278 277 277 277 277 277 277 277 278 279 280 281 282 283 283 284 284 284 284 284 283 283 283 283 282 282 281 280 279 279 280 280 280 280 280 280 280 280 280 281 281 282 282 282 282 283 283 283 283 283 282 282 283 283 284 284 285 285 285 285 285 285
278 278 278 278 278 278 278 278 278 278 278 278 278 279 279 279 279 279 279 279 279 279 278 278 277 277 277 277 277 277 277 277 278 278 279 280 281 282 282 283 283 284 284 284 284 284 283 284 283 283 282 280 279 279 279 280 280 280 280 281 281 281 280 281 281 282 283 283 283 283 283 283 283 283 282 282 283 283 283 284 285 285 286 286 286 286
278 278 278 278 278 277 278 278 278 278 278 278 278 278 279 279 280 280 279 279 278 278 278 277 277 277 276 277 277 278 278 278 278 278 279 280 280 281 281 282 282 282 283 283 283 283 283 284 284 284 284 282 281 280 280 280 280 281 281 281 281 281 281 281 282 283 283 283 284 284 284 284 284 284 283 283 282 282 283 283 284 285 286 286 286 286
278 278 278 278 277 277 277 278 278 278 278 278 278 278 278 279 279 279 279 279 278 278 277 277 277 277 276 277 277 277 278 278 278 278 279 279 280 280 280 281 281 281 281 281 281 281 281 282 282 284 285 285 283 282 281 280 280 281 281 281 281 282 281 282 282 283 284 284 284 284 284 284 284 284 284 283 282 282 282 283 283 284 285 286 286 286
278 278 278 277 277 277 277 277 277 277 277 277 277 278 278 278 278 278 278 278 278 278 278 278 277 277 276 277 277 277 277 277 277 278 278 279 280 280 280 280 280 279 279 279 279 279 279 279 279 280 283 285 286 285 282 281 281 281 281 281 282 282 282 282 283 283 284 284 284 284 284 284 284 284 283 283 282 281 281 282 282 283 285 285 286 286
Wind_Speed
1 2 2 2 2 2 3 4 4 4 4 4 3 3 3 3 3 4 5 6 6 6 6 6 7 7 9 11 12 13 14 14 14 14 14 14 14 14 14 14 15 15 15 15 16 16 16 16 16 16 17 17 17 17 18 18 18 18 19 19 19 19 19 19 20 20 20 20 20 20 20 20 20 20 20 20 20 20 21 21 21 21 21 21 22 22
3 3 2 3 3 3 3 4 4 4 4 4 3 3 3 4 4 4 4 5 6 6 6 6 7 7 8 9 11 13 13 14 14 14 14 14 14 14 14 15 15 15 15 16 16 16 16 16 16 16 16 17 17 17 17 18 18 18 18 19 19 19 19 19 19 19 20 20 20 20 20 20 20 20 20 20 21 21 21 21 21 21 22 22 22 22
3 3 3 3 4 4 3 4 4 4 4 4 4 4 4 5 5 4 4 5 5 5 5 6 6 7 8 9 10 12 13 13 13 14 14 14 14 14 15 15 15 15 16 16 16 16 16 16 16 16 16 16 17 17 17 17 18 18 18 18 19 19 19 19 19 19 19 20 20 20 20 20 20 20 20 21 21 21 21 21 22 22 22 22 22 22
2 2 2 2 3 3 3 3 3 3 3 3 4 4 5 5 5 4 4 4 5 5 5 6 7 7 7 7 9 11 13 13 13 14 14 14 15 15 15 15 15 15 15 15 15 15 15 15 16 16 16 16 17 17 17 18 18 18 18 18 19 19 19 19 19 19 19 19 20 20 20 20 20 20 20 21 21 21 21 21 22 22 22 22 22 23
1 1 2 2 2 3 3 3 3 2 2 3 3 4 4 4 4 4 4 5 5 5 5 6 6 6 6 6 7 10 12 13 14 14 14 15 15 15 15 15 15 15 15 15 15 15 15 16 16 16 16 17 17 17 18 18 18 18 19 19 19 19 19 19 19 19 19 19 19 19 20 20 20 20 20 21 21 21 21 21 22 22 22 22 22 23
1 2 2 2 2 2 2 2 2 2 2 2 3 3 3 3 3 3 4 4 5 5 5 5 5 6 6 6 8 10 12 13 13 14 14 14 14 14 15 15 15 15 15 15 15 15 15 16 16 17 17 17 18 18 18 18 19 19 19 19 19 19 19 19 19 19 19 19 19 19 19 20 20 20 20 20 21 21 21 21 22 22 22 22 23 23
2 2 2 1 1 1 1 1 2 2 2 2 2 3 3 3 3 3 4 4 4 4 4 4 5 5 6 7 9 10 11 11 12 12 13 13 13 13 13 14 14 14 14 15 15 15 16 16 17 17 18 18 18 18 19 19 19 19 19 19 19 19 19 19 19 19 19 19 19 19 19 20 20 20 20 20 20 21 21 21 22 22 22 22 23 23
2 2 2 1 1 1 1 2 2 2 2 2 2 3 3 3 3 3 3 3 4 4 4 4 4 5 5 6 7 8 8 8 9 9 10 11 11 12 12 13 13 14 14 15 15 16 16 17 17 18 18 18 18 19 19 19 19 19 19 18 18 18 18 19 19 19 19 19 19 19 19 19 19 20 20 20 20 21 21 21 21 22 22 22 23 23
2 2 2 1 2 2 2 2 2 2 2 2 2 2 3 3 3 3 3 3 3 3 3 4 4 4 5 5 6 6 7 7 7 7 8 7 8 9 11 12 13 14 15 15 16 16 17 17 18 18 18 18 18 19 19 18 18 18 18 18 18 18 18 18 18 18 18 18 18 18 19 19 19 19 20 20 20 20 21 21 21 22 22 22 23 23
2 2 2 2 2 2 2 2 2 1 1 1 2 2 3 4 4 4 4 3 3 2 2 3 4 4 5 5 5 6 7 7 8 9 10 9 9 10 11 11 11 12 14 15 16 16 17 17 17 18 18 18 18 18 18 18 17 17 17 17 17 17 17 17 17 17 17 17 18 18 18 18 19 19 19 20 20 20 21 21 21 22 22 22 23 23
2 2 2 2 2 2 2 2 1 1 1 2 2 3 3 3 3 3 4 4 3 2 2 2 3 4 4 5 5 6 6 6 7 8 9 10 11 11 11 11 11 12 14 14 15 16 16 17 17 17 17 17 17 17 17 17 16 16 16 16 16 16 16 16 17 17 17 17 17 18 18 19 19 19 20 20 20 21 21 21 21 22 22 22 23 23
2 2 2 2 2 2 1 1 1 1 2 2 3 3 3 2 2 2 3 4 3 3 3 3 3 3 4 5 5 5 5 5 5 5 5 6 7 7 8 8 8 10 11 12 13 14 15 16 16 16 16 16 16 16 16 16 16 16 16 16 16 16 16 16 16 16 17 17 18 18 19 19 19 20 20 20 21 21 21 21 21 21 22 22 23 23
2 2 1 2 1 2 1 2 2 2 2 2 2 2 2 2 2 2 2 3 3 3 3 3 3 3 4 4 5 5 5 5 5 5 4 4 4 4 4 4 5 6 7 7 8 9 12 14 15 15 15 15 15 15 15 15 15 15 15 15 15 15 16 16 16 17 17 18 18 19 19 20 20 20 20 21 21 21 21 21 21 22 22 22 23 23
2 2 2 2 2 2 2 2 2 2 2 2 2 2 2 2 2 2 3 3 3 3 3 4 4 4 4 4 4 4 5 5 5 4 4 3 3 3 3 4 5 5 6 6 6 7 10 10 10 11 13 14 14 14 14 14 14 15 15 15 15 16 16 16 17 18 18 19 19 19 20 20 20 21 21 21 21 21 22 22 22 22 22 22 23 23
2 2 2 2 2 2 2 2 2 2 1 1 2 2 2 2 2 2 3 3 3 3 3 4 5 5 4 4 4 4 4 4 4 4 4 4 3 3 4 5 5 6 6 6 7 7 9 8 8 8 9 11 12 12 13 13 14 15 15 16 16 17 17 18 18 19 19 19 20 20 20 20 21 21 21 21 22 22 22 22 22 22 22 23 23 23
1 1 2 2 2 2 2 2 1 1 2 2 2 2 3 3 2 2 2 3 3 3 4 5 5 5 4 3 3 3 4 4 4 4 5 4 4 4 5 5 6 6 6 7 7 6 6 6 7 7 8 10 13 14 15 15 15 16 17 17 18 18 18 19 19 19 20 20 20 20 21 21 21 21 21 22 22 22 22 22 22 23 23 23 23 23
1 2 2 3 3 2 2 1 1 1 2 2 2 2 2 2 2 2 2 3 3 3 3 4 4 4 3 3 3 3 3 4 4 4 5 5 5 4 5 5 6 7 7 7 7 6 6 6 6 7 7 11 13 15 16 17 17 18 18 19 19 19 19 19 20 20 20 20 20 21 21 21 21 22 22 22 22 22 22 23 23 23 23 23 23 23
2 2 2 2 2 2 2 2 2 2 2 2 2 2 2 2 2 2 3 3 3 3 3 4 4 4 4 3 3 3 3 4 4 5 6 6 6 5 5 5 6 7 7 7 7 6 6 6 6 7 9 13 16 17 18 18 18 19 19 19 19 20 20 20 20 20 20 21 21 21 21 21 22 22 22 22 22 22 23 23 23 23 23 24 24 24
2 2 2 2 2 2 2 2 2 2 2 2 2 2 2 2 2 2 3 3 3 4 5 4 4 4 4 4 4 4 4 4 5 5 6 7 6 5 4 5 6 7 7 7 6 6 6 6 8 10 13 16 17 18 19 19 19 19 20 20 20 20 20 20 21 21 21 21 21 21 21 22 22 22 22 22 22 22 22 23 23 23 23 23 24 24
2 2 2 2 2 2 2 2 2 1 1 2 2 2 2 3 3 3 3 4 4 4 4 5 5 5 4 5 5 4 4 4 5 5 6 7 7 6 5 5 6 7 7 6 6 6 6 6 7 9 13 15 17 18 19 19 19 20 20 20 21 21 21 21 21 21 21 22 22 22 22 22 22 22 22 22 22 22 22 22 23 23 23 23 24 24
3 3 2 2 2 2 2 2 2 2 2 2 2 2 3 3 4 4 4 4 5 4 4 4 5 5 4 5 5 5 4 5 5 5 5 5 6 5 4 4 5 6 7 6 6 6 6 6 6 7 10 14 16 18 19 20 20 21 21 21 21 22 22 22 22 22 22 22 22 22 22 22 22 22 22 22 22 22 22 22 23 23 23 23 24 24
3 3 3 2 2 2 2 2 2 3 3 2 2 3 3 3 4 5 5 5 4 4 4 4 4 4 5 6 6 5 4 4 5 5 4 5 6 6 4 4 4 6 7 6 6 6 6 6 6 7 10 15 17 19 20 20 21 21 22 22 22 22 22 22 22 22 22 22 22 22 22 22 22 22 22 22 22 22 22 23 23 23 23 23 23 24
4 4 3 3 3 3 3 2 2 3 3 3 3 3 2 3 4 4 4 4 4 4 4 4 5 5 6 6 6 6 5 5 5 5 5 5 6 6 4 3 4 5 6 6 6 6 6 6 7 8 11 15 18 19 20 21 21 22 22 22 22 22 22 22 22 22 22 22 22 22 22 22 22 22 22 22 22 22 23 23 23 23 23 23 23 23
3 4 3 3 3 2 2 2 2 2 2 3 3 3 2 3 3 4 3 3 3 4 4 5 6 6 6 6 6 6 5 4 4 4 4 5 5 5 4 3 4 6 6 6 5 6 6 7 7 7 8 13 17 19 20 21 22 22 22 22 22 22 22 22 22 22 22 22 22 22 22 22 23 23 23 23 23 23 23 23 23 23 23 23 23 23
3 3 3 3 3 4 4 4 4 4 4 3 3 3 3 4 5 5 4 4 5 5 5 6 7 6 5 6 5 4 4 3 3 4 4 4 4 5 4 3 4 5 6 6 5 6 7 7 7 7 7 11 15 18 20 21 22 22 22 22 22 22 22 22 22 22 22 22 22 22 23 23 23 23 23 23 23 23 23 23 23 23 23 23 23 23
6 6 6 7 8 9 10 10 10 9 9 7 5 4 4 5 5 5 5 5 5 5 6 6 6 6 5 4 4 4 3 3 3 3 3 3 4 4 4 3 4 5 6 6 5 6 7 7 7 7 7 9 13 16 19 20 21 22 22 22 22 22 22 22 22 22 22 22 23 23 23 23 23 23 23 23 23 23 23 23 23 23 23 23 23 22
9 10 11 12 12 12 13 13 13 13 13 12 10 8 6 5 5 5 6 5 5 5 6 6 6 6 5 4 4 4 3 3 3 3 3 3 4 4 4 3 4 5 6 6 5 6 7 8 8 8 8 8 10 12 16 18 20 20 21 21 21 21 21 22 22 22 22 23 23 23 23 23 23 23 23 23 23 23 23 23 23 23 23 22 20 18
9 10 10 11 11 12 12 13 13 13 14 14 13 12 9 6 5 6 6 5 5 5 6 6 6 6 5 4 4 4 4 3 3 3 3 3 4 4 4 4 4 4 5 5 5 6 7 8 8 8 8 8 8 9 12 15 17 18 19 20 21 21 22 22 22 22 22 22 23 23 23 23 23 23 23 23 23 23 23 23 23 22 21 17 13 11
8 8 9 10 10 11 11 11 12 13 13 14 14 12 9 6 5 6 6 5 5 5 6 6 6 6 5 5 5 4 5 4 4 4 3 3 4 4 3 3 3 4 4 4 5 5 6 6 6 6 7 8 8 8 9 11 13 15 16 18 20 21 21 21 21 22 22 22 22 22 22 23 23 23 23 23 23 23 23 23 22 20 16 12 10 8
6 6 7 8 8 9 9 9 9 10 12 13 13 11 9 6 5 5 5 5 5 6 6 6 6 5 5 5 5 4 4 4 4 3 3 3 3 3 3 3 3 3 3 4 4 5 5 4 4 5 5 7 7 7 7 8 9 10 11 14 16 17 19 20 20 21 21 21 22 22 22 22 23 23 23 22 22 22 22 23 21 16 10 9 8 8
5 6 5 6 6 6 6 6 6 7 8 9 10 9 7 5 5 5 5 5 5 5 5 5 5 5 5 4 4 4 3 2 2 2 2 2 3 3 3 4 4 4 3 3 4 4 5 4 4 4 4 6 7 7 8 8 8 8 8 10 11 12 16 17 18 19 19 20 21 21 22 22 22 22 22 22 22 22 22 22 20 15 9 8 8 8
5 5 5 4 4 4 4 4 4 4 5 5 6 6 6 5 5 5 5 5 5 5 5 5 5 5 5 5 4 4 3 3 3 3 3 2 3 3 4 4 4 4 3 3 4 4 5 5 4 4 5 6 6 7 8 8 8 8 8 9 9 10 13 15 16 16 16 17 18 19 20 21 21 21 21 21 21 21 21 22 19 15 10 8 8 8
5 4 4 4 4 4 4 4 4 4 4 4 4 4 4 4 5 5 4 4 4 4 4 5 5 5 5 6 6 5 4 4 4 5 5 3 3 3 4 4 5 5 4 4 4 5 5 5 6 6 6 6 6 6 7 8 8 8 8 8 8 8 11 12 12 12 12 13 14 16 17 19 19 20 20 20 21 20 21 21 19 17 12 9 8 8
4 4 4 4 4 4 4 4 4 4 4 4 4 3 3 3 4 4 4 4 4 4 4 5 5 5 5 5 6 6 5 5 5 6 6 4 3 3 4 4 5 5 5 4 4 5 5 6 6 6 6 6 6 6 7 7 8 8 7 7 7 7 9 9 9 9 10 10 10 11 12 13 15 16 17 18 18 18 19 19 19 19 17 12 10 8
4 4 4 4 4 4 4 4 4 4 3 3 3 3 3 3 3 3 4 4 4 4 4 5 5 5 5 5 5 6 6 5 5 6 6 5 4 4 4 4 5 5 5 5 5 5 5 7 8 8 7 7 7 6 6 6 7 7 6 7 7 7 7 7 8 9 10 9 9 9 9 9 9 11 12 14 16 17 18 19 20 20 20 18 15 12
4 4 4 4 4 4 4 4 3 3 3 2 2 2 2 2 2 3 3 3 4 4 5 5 5 5 5 5 6 6 7 6 6 6 7 5 4 4 4 4 5 5 5 6 6 5 5 7 8 9 9 8 8 7 6 5 6 6 6 7 7 7 8 8 8 8 9 9 9 9 8 8 8 9 9 13 16 18 19 20 20 21 21 21 20 17
4 4 4 4 4 4 3 3 2 2 2 2 2 2 2 2 3 3 3 3 3 4 5 6 6 6 7 7 7 7 7 7 7 8 8 6 5 5 5 5 6 6 6 6 6 6 6 7 8 9 8 8 7 7 6 6 6 6 7 7 7 7 8 8 8 8 8 9 9 9 9 9 8 9 9 13 15 16 18 19 19 19 20 20 21 21
4 4 4 4 3 3 2 2 2 2 2 2 3 3 3 3 4 4 4 4 4 4 5 6 6 7 10 10 10 9 9 10 10 10 10 8 7 6 6 6 7 7 6 6 7 7 7 8 8 8 8 7 8 8 9 8 8 8 7 8 8 8 8 8 8 8 8 9 10 10 10 9 9 9 9 10 10 10 11 11 12 14 17 17 18 20
4 4 3 3 3 3 3 3 2 2 3 3 3 3 4 4 5 5 5 5 5 6 6 7 7 7 8 9 10 11 11 11 11 10 10 9 8 7 7 8 8 8 7 7 7 7 7 8 8 8 8 8 8 9 9 8 8 9 9 8 8 8 8 7 7 7 7 8 9 10 10 9 9 8 8 8 7 7 7 7 8 10 10 9 11 14
3 3 3 3 3 3 3 3 3 3 3 3 4 4 4 4 5 5 5 5 6 6 7 7 7 7 7 8 9 10 10 9 9 9 8 8 7 7 8 8 8 8 7 7 7 7 8 8 9 9 9 8 8 9 8 8 8 9 10 9 8 7 7 7 7 7 7 8 9 9 9 9 8 8 8 8 7 7 7 7 7 8 8 7 7 8
3 3 3 3 4 4 3 3 3 3 3 3 4 4 4 4 4 4 4 5 5 5 5 6 6 6 7 7 8 9 9 9 9 9 7 8 8 9 8 8 8 8 8 8 8 8 8 9 9 9 9 9 9 10 10 10 11 11 12 10 9 9 9 10 9 9 8 8 8 8 9 9 10 9 9 9 8 8 7 8 8 8 9 7 7 7
4 4 4 4 3 3 3 3 4 4 4 4 4 4 4 4 4 4 4 4 4 5 5 5 5 6 6 7 7 7 8 8 8 9 9 9 10 10 9 9 9 8 8 8 8 9 9 9 9 9 9 9 9 9 10 10 11 11 11 11 11 11 11 10 8 7 7 8 8 8 10 10 10 9 10 9 9 9 8 9 10 10 10 9 8 7
4 4 4 4 4 4 4 4 4 4 4 4 4 4 4 3 4 4 4 5 5 5 5 5 5 6 6 7 7 6 6 6 7 9 9 10 10 11 11 11 10 9 8 8 9 9 9 10 9 9 9 9 9 10 11 11 11 10 10 10 10 9 7 7 6 6 7 8 8 9 9 9 9 9 9 9 9 8 8 10 11 12 11 10 8 8
4 3 3 3 3 3 4 4 4 4 3 4 4 4 4 4 4 5 5 5 5 5 5 5 5 6 7 7 7 6 5 5 6 8 9 10 10 10 10 11 11 11 10 9 9 8 9 9 9 9 8 8 9 10 11 11 10 10 10 10 10 10 8 8 8 8 8 9 9 9 9 9 9 9 9 9 9 9 9 9 9 10 10 10 9 9
3 3 3 3 3 3 4 4 4 4 4 4 4 4 4 4 5 5 4 5 5 5 5 5 5 5 6 6 6 6 6 6 5 5 6 8 10 11 10 10 10 10 10 10 9 9 8 9 9 9 8 8 9 10 10 11 11 11 11 11 11 11 11 10 10 10 10 10 10 9 9 9 9 9 10 9 9 9 9 9 10 10 9 9 9 9
3 3 3 3 3 4 4 4 4 4 4 4 5 5 4 4 4 5 5 5 5 5 5 5 5 5 6 6 6 6 6 6 6 6 5 6 7 8 8 8 8 8 8 9 9 9 9 9 9 9 8 9 9 10 11 11 11 11 11 10 10 10 10 10 10 10 10 10 10 10 10 9 9 9 9 10 10 10 9 9 9 10 9 9 9 9
3 3 4 4 4 4 4 4 4 4 4 5 5 5 5 4 5 5 5 5 5 5 5 5 5 6 7 7 7 6 7 7 7 6 6 6 6 6 7 7 7 8 8 8 9 9 10 10 10 9 9 9 10 10 11 10 10 11 11 10 10 10 10 9 9 9 9 10 10 10 8 8 8 9 10 10 10 9 9 9 9 9 9 9 9 9
4 4 4 4 4 4 5 4 4 5 5 5 5 5 5 5 5 5 5 5 5 5 5 5 6 6 7 7 7 7 7 8 7 7 7 6 6 6 6 6 6 7 8 8 9 10 10 10 10 10 10 10 10 11 11 10 10 10 10 10 10 10 10 10 9 9 9 10 10 10 8 8 8 9 9 10 9 9 9 9 9 9 9 9 9 9
4 4 4 4 4 5 5 5 5 5 5 5 5 5 5 5 6 6 5 5 5 5 5 6 6 7 7 7 7 7 8 8 8 7 7 6 6 6 5 5 6 6 7 8 8 9 9 10 11 12 11 11 11 12 12 11 10 10 10 10 10 10 10 10 10 9 9 9 9 9 7 7 7 8 8 9 10 11 11 10 10 9 8 8 9 9
4 4 4 4 5 5 5 5 5 5 5 5 5 5 5 5 5 5 5 5 5 5 5 6 6 7 7 7 7 8 8 8 8 7 7 6 6 6 5 5 6 6 6 6 6 7 7 7 9 10 12 13 13 12 12 11 11 10 10 10 10 9 10 10 9 9 9 9 9 8 7 7 7 7 7 9 10 12 12 11 10 9 8 8 8 9
4 4 4 4 5 5 5 5 5 5 6 6 6 6 6 5 5 5 5 5 6 6 6 6 6 7 7 8 8 8 8 8 8 8 8 6 6 6 6 6 6 6 6 6 6 6 5 5 6 7 9 12 14 14 11 10 10 10 10 10 9 8 8 9 9 9 9 9 9 8 8 8 8 8 7 8 9 11 12 11 11 10 9 8 8 8
Wind_Direction
192 210 218 209 212 224 239 243 248 254 257 258 262 268 278 284 285 285 285 286 286 287 287 287 286 286 286 286 285 284 283 283 282 282 281 281 281 281 281 282 282 283 283 284 285 285 286 286 286 286 286 285 285 284 283 283 282 282 281 281 281 281 282 282 282 283 283 283 283 284 284 285 285 286 286 286 286 286 286 285 285 285 285 285 284 284
190 199 209 205 207 217 237 245 251 257 263 267 270 275 282 285 286 286 287 287 286 286 286 286 286 286 285 285 285 284 284 283 283 282 282 281 281 281 281 282 283 283 284 285 286 286 287 287 286 286 285 284 283 283 282 282 281 281 281 281 281 281 281 281 282 282 282 283 283 283 284 284 285 285 285 285 285 285 285 284 285 285 285 284 284 284
180 186 194 198 203 211 228 242 250 257 264 270 275 280 285 286 286 286 287 286 285 284 284 285 285 285 285 284 284 284 284 284 283 283 282 282 282 281 282 282 283 284 285 286 287 287 287 286 286 285 284 283 282 282 281 281 281 280 280 280 280 280 280 280 281 281 282 282 283 283 284 284 284 285 285 285 285 285 285 284 285 285 284 284 284 284
175 186 197 205 212 218 227 238 247 253 258 265 271 277 281 282 283 285 286 286 286 284 283 283 283 284 283 283 283 283 284 284 284 283 282 282 281 281 281 282 283 284 285 286 286 286 286 285 285 284 283 282 282 282 281 281 281 280 280 280 280 280 280 280 281 281 282 282 283 283 284 284 285 285 285 285 284 284 284 284 284 284 283 283 282 282
196 206 212 216 223 229 231 238 247 254 261 265 271 275 277 278 280 282 283 283 283 283 283 282 282 282 282 282 282 282 283 283 283 282 282 281 281 281 282 283 284 284 285 286 286 286 285 285 284 283 283 283 282 282 282 282 281 281 281 281 281 281 281 281 281 282 282 283 284 284 284 285 285 285 285 284 284 283 283 282 282 282 282 281 281 280
218 221 223 220 222 228 240 249 260 271 276 274 274 275 275 274 274 275 276 278 279 281 282 282 282 281 281 280 280 281 282 283 282 282 282 282 282 282 283 284 285 285 286 286 286 286 285 285 284 284 283 283 283 283 283 282 282 282 282 282 282 282 282 282 282 283 283 284 284 284 284 284 284 284 283 282 282 281 281 281 280 280 280 280 279 279
233 233 228 218 212 222 247 259 267 271 274 275 275 274 271 269 267 268 271 274 278 281 282 281 280 279 279 279 280 282 284 284 285 285 285 286 286 286 287 287 288 288 288 287 287 286 285 285 284 283 283 283 282 282 282 282 282 282 282 282 282 282 282 283 283 283 284 284 284 283 283 282 282 281 281 280 280 279 279 279 279 279 279 279 278 278
241 243 234 220 220 234 246 250 253 256 260 268 273 277 276 274 273 272 273 273 274 276 277 277 276 276 278 281 285 288 290 290 291 292 290 291 291 291 291 291 291 290 289 288 287 286 284 283 282 282 281 281 281 281 281 281 281 281 282 282 282 282 282 283 283 283 283 283 283 282 281 281 280 279 279 278 278 278 278 278 278 278 278 278 277 277
240 249 250 250 253 259 262 257 248 239 237 253 268 279 286 287 287 284 278 271 265 263 267 273 279 283 287 292 295 297 297 297 296 295 293 293 292 291 291 291 290 289 288 287 286 284 283 283 282 281 281 281 280 280 280 281 281 282 282 282 282 282 282 282 282 282 282 282 282 281 281 280 280 279 278 278 277 277 277 277 276 276 276 276 276 276
234 245 255 256 256 257 262 263 254 233 218 237 256 269 277 280 281 280 277 272 267 264 269 281 290 294 298 298 299 298 297 296 295 294 292 290 288 287 286 286 286 285 285 286 285 285 284 284 284 283 283 282 282 282 282 282 282 283 283 283 282 282 282 282 282 282 282 282 282 281 281 280 280 279 278 278 277 276 276 275 275 275 275 275 275 276
233 238 248 252 251 247 248 255 255 237 216 234 245 250 251 255 263 272 280 283 286 289 291 294 298 300 302 301 299 298 298 296 295 293 291 289 288 286 285 285 285 285 287 288 289 289 289 289 288 287 286 286 285 285 284 284 284 283 283 282 282 281 281 281 281 282 282 282 282 282 282 281 281 280 279 278 277 276 276 275 274 274 275 275 275 275
241 245 251 258 260 260 253 255 248 237 224 235 244 248 247 247 256 275 287 292 295 298 299 298 298 299 299 299 298 297 296 294 293 291 290 288 287 287 288 289 291 292 293 294 294 294 293 292 291 290 289 288 287 286 285 284 283 282 282 281 281 281 281 281 282 282 283 283 283 283 283 282 282 281 280 279 279 278 277 276 276 276 276 276 276 275
236 244 251 254 258 259 260 257 250 242 234 240 251 264 275 284 290 291 287 288 291 296 302 302 301 298 295 294 294 294 294 293 292 292 291 290 291 293 296 298 300 299 299 297 296 294 293 293 292 291 290 288 287 286 284 283 283 282 281 282 282 282 282 283 283 284 284 284 284 284 283 283 282 282 281 280 280 279 278 278 277 277 276 276 275 275
237 241 245 250 253 254 254 253 253 254 253 261 276 291 300 301 296 289 284 284 291 300 310 307 304 300 296 293 291 291 292 293 293 294 294 296 299 303 305 303 301 299 297 295 293 292 292 293 292 290 289 287 286 285 284 283 283 283 283 284 284 284 284 285 285 285 285 285 284 284 284 283 283 282 281 281 280 279 279 278 277 277 276 276 275 275
242 246 251 255 258 258 256 256 261 269 282 300 307 306 299 290 285 285 287 295 305 313 314 307 302 298 294 292 290 289 290 292 295 297 299 300 303 306 307 303 300 297 295 293 291 290 291 290 288 286 285 284 284 284 284 285 285 285 285 285 285 285 285 285 285 285 284 284 284 283 283 283 282 282 281 280 280 279 278 278 277 277 276 275 275 275
258 266 268 266 265 263 263 272 282 294 303 304 298 289 283 283 289 299 309 311 315 316 313 307 303 299 294 291 290 291 292 295 298 301 302 301 301 303 305 302 298 295 291 289 288 287 288 286 284 282 282 283 284 284 285 285 285 285 285 285 285 285 285 285 284 284 284 284 283 283 283 283 282 282 281 280 280 279 279 278 278 277 276 276 275 275
271 269 268 267 268 270 277 290 298 299 294 285 278 275 279 296 315 326 323 318 315 311 305 302 301 301 300 298 296 294 298 301 303 304 303 299 298 298 300 297 293 290 288 286 285 286 285 283 283 282 281 282 283 284 285 285 285 285 285 285 285 285 284 284 284 284 284 284 284 284 283 283 283 282 282 281 281 280 280 279 279 278 277 276 276 275
240 244 251 258 266 277 290 297 296 288 280 278 282 292 311 328 332 327 316 308 301 296 292 288 287 288 292 293 295 299 307 310 309 306 302 296 293 292 293 291 289 286 285 283 283 282 282 281 279 279 280 282 283 284 285 285 285 285 285 285 285 285 285 285 285 285 285 285 285 285 284 284 284 283 283 282 282 281 281 280 279 279 278 277 276 275
240 242 249 260 268 276 279 275 273 273 277 287 304 317 318 316 311 302 292 285 280 276 275 274 274 275 280 284 289 298 310 313 311 306 299 293 290 290 292 289 286 284 282 282 282 282 281 279 277 278 280 283 284 285 285 286 286 286 287 287 287 287 287 287 287 287 286 286 286 285 285 285 284 284 284 283 282 282 281 280 280 279 278 277 277 276
264 263 259 263 266 268 264 262 266 278 298 314 317 311 302 298 291 283 275 268 262 260 260 264 268 272 277 282 288 297 310 313 308 300 292 288 287 288 290 288 286 284 282 281 281 280 279 278 279 281 283 284 285 286 287 288 288 289 289 289 289 289 289 288 288 288 287 287 287 286 286 286 285 285 284 284 283 282 281 281 280 279 279 278 278 277
279 275 273 276 276 275 275 283 296 308 317 319 310 299 292 287 281 276 271 266 263 261 258 261 267 274 282 287 292 298 308 305 298 292 287 285 284 284 287 285 283 282 281 280 279 279 280 281 282 283 284 286 288 289 289 290 290 290 291 290 290 290 290 290 289 289 288 288 288 287 287 286 286 285 285 284 283 283 282 281 281 280 280 279 279 278
276 278 284 291 291 286 283 288 296 301 305 299 285 276 273 273 272 272 271 272 272 272 272 274 280 287 292 292 291 292 292 286 282 281 284 283 282 282 282 278 277 277 278 281 283 284 284 283 283 284 286 288 289 290 291 291 291 291 292 292 292 291 291 291 290 290 289 289 288 288 287 287 286 286 285 285 284 284 283 283 282 282 281 280 280 279
273 279 286 289 286 283 281 283 288 290 289 279 271 268 269 275 280 284 286 285 286 287 288 289 289 287 284 281 280 278 273 268 267 270 275 277 279 280 282 281 280 280 279 282 285 287 287 286 286 287 288 290 291 291 292 293 293 293 293 293 293 293 292 291 290 290 289 288 288 287 287 287 287 286 286 286 286 285 285 284 284 283 282 281 280 280
277 277 278 279 279 280 279 278 277 274 271 267 267 267 271 276 279 282 286 291 293 293 291 287 283 279 275 272 272 271 267 262 261 262 266 271 276 280 284 285 282 281 281 284 288 291 291 289 288 287 288 291 292 294 294 295 295 295 294 294 293 292 291 291 290 289 288 288 288 288 288 288 288 288 288 287 287 286 286 285 284 283 283 282 281 280
286 284 281 279 276 273 268 264 261 260 258 257 258 260 264 270 274 279 284 287 287 285 283 280 278 276 275 275 275 274 271 265 261 260 262 270 275 278 281 282 283 284 284 287 289 290 289 288 289 290 291 294 295 295 295 295 295 294 293 293 292 291 291 290 290 290 289 289 289 289 289 289 288 288 288 287 287 286 286 285 284 284 283 282 281 280
281 281 281 279 276 273 270 267 266 264 263 262 262 262 268 273 277 281 281 279 278 277 277 276 276 276 277 279 279 278 279 272 265 261 263 271 277 280 282 284 284 284 285 287 287 288 289 290 293 295 295 294 294 293 293 293 293 293 292 293 292 292 292 292 292 292 291 291 290 289 289 288 288 287 287 286 286 286 285 285 285 284 284 283 282 281
274 275 276 276 275 274 272 271 270 269 268 268 267 267 270 273 275 273 270 269 270 271 272 273 275 277 279 278 278 279 283 282 278 274 274 277 279 281 283 284 283 283 284 285 288 291 293 293 294 294 292 290 289 289 290 292 293 294 295 295 296 296 295 294 294 293 292 291 290 289 288 288 287 287 286 286 286 286 285 285 285 285 284 284 282 280
266 268 269 270 270 271 271 270 270 269 268 267 266 265 264 264 263 263 263 265 267 267 267 269 273 276 279 279 280 283 287 286 283 281 279 276 274 274 278 281 281 283 286 289 291 293 292 290 289 288 286 285 285 287 291 295 298 299 300 299 298 297 296 295 293 292 291 290 289 289 288 288 287 287 287 286 286 285 285 285 285 285 284 283 281 279
262 261 260 261 262 263 264 265 266 266 264 263 262 260 256 253 253 256 260 263 265 266 265 266 268 272 277 280 283 284 282 277 271 266 262 262 264 268 275 279 282 288 295 298 297 293 286 282 281 282 283 287 290 294 298 302 303 302 301 299 297 295 294 293 292 292 291 290 290 289 289 288 287 287 286 286 286 285 285 285 285 285 285 283 280 277
276 269 262 259 258 258 258 258 260 260 260 259 258 256 252 248 248 251 257 259 260 261 263 264 266 269 275 281 283 281 274 266 260 257 258 262 267 274 283 287 291 298 306 306 301 295 286 280 277 280 286 294 298 302 303 304 302 300 298 296 295 293 293 292 292 292 291 290 290 289 288 288 287 287 286 286 286 286 286 286 286 286 284 281 278 275
282 278 273 268 264 260 257 256 256 257 258 257 256 254 250 246 245 247 251 253 254 256 260 263 265 267 270 275 276 275 271 270 283 299 308 290 284 285 292 293 293 295 300 298 297 295 294 290 286 286 294 300 301 300 298 297 296 294 293 293 292 292 292 292 292 292 291 290 289 289 288 288 288 287 287 287 286 286 286 286 285 285 281 278 275 273
275 275 274 274 272 270 265 261 258 256 255 254 252 249 245 241 240 242 246 249 251 254 258 262 264 265 263 262 263 265 269 276 296 310 316 300 288 286 289 288 288 289 288 282 281 285 292 295 297 299 300 298 296 294 293 292 292 291 291 291 290 291 292 292 292 291 291 290 290 290 289 289 289 288 288 287 286 286 285 285 284 283 279 275 272 271
274 275 275 276 275 272 268 262 257 253 249 246 243 241 239 238 239 241 245 248 251 254 256 260 262 263 262 260 260 262 265 271 283 291 293 286 282 282 283 284 285 286 288 281 276 274 278 286 293 297 296 292 290 290 291 291 290 289 289 288 288 289 290 292 292 292 292 292 292 291 291 290 289 288 287 286 286 285 284 284 283 281 278 275 272 270
279 279 277 276 272 268 263 258 253 249 245 243 239 237 235 236 239 242 245 247 249 249 251 254 258 261 263 264 264 264 266 268 276 282 286 283 281 282 285 285 285 288 290 285 280 276 274 279 286 291 293 292 290 289 290 290 289 287 285 285 286 288 290 293 293 293 292 292 291 290 290 289 288 287 287 286 285 284 283 283 282 281 280 277 274 272
282 279 277 273 269 265 260 254 250 247 244 244 242 240 238 237 240 243 245 246 247 248 248 250 253 257 261 264 267 268 269 272 279 285 290 289 289 289 288 284 284 286 287 284 283 281 280 281 284 288 292 293 292 289 286 286 286 286 285 285 287 288 290 292 293 292 292 291 289 288 287 287 286 285 284 284 283 283 283 283 282 282 281 279 278 276
281 278 275 271 266 263 259 257 255 254 255 257 257 256 255 253 252 252 252 252 254 255 256 257 258 259 260 262 265 268 272 276 283 287 289 290 290 289 285 281 281 283 284 282 281 281 282 284 285 286 288 289 290 290 288 287 288 289 290 289 289 288 288 289 289 290 290 289 288 287 286 284 283 282 281 283 284 284 284 284 283 283 282 280 279 277
277 274 271 267 265 264 265 267 269 273 276 278 279 280 280 276 273 270 267 264 262 262 264 265 264 262 261 261 262 265 270 274 277 278 278 279 280 279 276 276 277 277 276 278 280 281 281 283 284 284 283 283 286 290 295 296 295 292 290 290 289 289 288 287 287 287 286 285 284 284 284 283 283 283 284 285 285 286 285 285 283 282 281 280 278 277
271 269 267 268 270 274 279 284 287 288 289 287 287 288 289 287 285 282 279 273 267 264 262 262 261 260 258 258 258 259 262 265 267 267 266 266 266 267 268 271 271 270 267 269 272 275 277 279 282 283 283 281 282 285 291 295 296 294 291 290 289 287 286 285 284 282 281 282 283 284 285 286 286 286 286 285 285 284 283 281 280 279 279 278 277 276
265 266 271 278 283 287 288 288 289 290 291 292 293 293 293 289 285 281 276 271 266 261 258 258 258 257 255 253 253 255 257 258 258 257 256 255 255 257 260 264 266 265 263 262 263 264 267 270 273 277 281 283 285 286 287 288 290 291 293 292 289 284 281 282 283 283 283 285 286 287 287 286 285 283 281 280 279 278 276 276 274 274 274 274 275 275
267 273 282 286 286 285 283 283 285 289 291 291 292 291 287 282 277 273 269 266 264 262 261 260 260 260 259 258 258 258 258 256 254 252 251 247 245 246 251 256 260 262 262 259 257 256 258 262 266 269 272 277 282 285 286 285 286 288 292 293 291 288 287 288 288 287 285 284 283 283 283 282 280 277 276 276 275 274 274 274 274 274 273 272 273 274
277 281 283 283 283 282 281 285 289 292 293 291 287 282 276 273 272 272 271 269 268 268 269 267 267 267 266 264 263 262 261 259 256 253 250 244 240 240 244 249 254 257 259 258 255 253 253 258 262 266 268 272 276 279 280 280 283 285 288 287 287 288 290 289 287 285 283 280 278 278 279 280 280 279 279 278 276 274 273 274 275 275 274 271 269 270
281 280 278 280 282 287 292 296 296 294 290 286 281 277 273 274 276 279 281 280 279 277 276 275 275 275 274 270 266 263 260 259 256 254 253 246 241 239 240 244 247 250 253 255 255 254 252 255 259 263 266 269 273 276 277 278 279 280 280 281 285 288 289 285 283 281 282 281 280 281 281 282 282 282 281 279 277 275 273 272 272 272 271 269 266 264
272 272 275 279 285 291 296 295 292 287 281 277 274 274 275 278 280 282 283 282 280 279 278 277 277 277 278 276 273 269 263 258 256 255 255 250 244 240 240 241 242 244 247 252 255 256 255 255 256 259 262 264 267 271 275 278 279 278 276 278 283 287 289 287 286 286 284 282 282 281 280 280 279 278 277 276 275 274 273 271 269 268 267 266 264 262
268 271 278 284 288 291 291 287 283 280 279 278 278 278 279 279 279 279 279 278 278 278 278 278 278 277 276 276 277 276 273 266 260 258 258 256 251 246 244 242 241 242 242 246 252 258 261 260 258 258 260 261 263 266 270 274 277 277 276 277 277 277 276 282 287 288 285 281 278 276 274 274 275 275 275 274 273 272 271 269 267 265 264 263 262 261
279 285 289 290 290 288 285 284 284 285 284 283 282 280 279 278 276 274 274 276 277 278 278 280 280 279 276 276 279 281 282 280 276 271 267 264 261 258 253 249 246 244 243 244 248 253 259 262 264 264 263 262 262 263 267 272 275 276 276 276 274 272 270 274 278 280 279 278 276 275 273 273 275 276 276 275 272 270 269 268 268 267 265 263 261 260
279 283 286 286 286 285 284 286 287 287 284 282 280 279 278 275 274 272 272 274 276 278 278 278 277 277 277 281 283 286 286 285 283 281 277 272 267 263 259 255 253 251 250 250 250 250 252 258 263 267 270 267 264 263 263 267 271 274 276 276 275 274 273 272 272 272 273 275 275 275 274 275 276 276 276 275 273 271 268 267 266 266 266 263 261 260
279 282 285 288 288 287 287 288 288 287 285 282 281 280 279 277 276 275 273 273 274 276 277 276 273 273 276 281 284 286 286 286 284 282 280 277 274 270 268 264 261 258 257 257 256 255 254 255 258 261 265 268 268 267 265 265 267 270 273 275 275 274 272 271 270 269 270 271 273 274 276 277 276 275 273 273 273 272 270 267 265 264 264 263 262 260
287 288 289 289 288 288 288 288 287 286 284 283 283 282 280 279 278 277 277 275 275 276 277 277 275 274 275 277 278 280 281 283 284 283 282 280 278 275 273 271 269 266 264 263 262 261 260 257 255 255 256 261 265 268 269 267 266 267 270 272 273 272 272 271 271 270 270 270 270 270 272 273 273 274 275 276 276 275 275 273 270 267 265 264 264 263
287 287 287 287 286 286 286 286 285 284 283 284 284 284 283 282 281 280 279 278 276 275 274 274 274 275 275 276 277 278 279 280 281 281 281 281 280 280 278 276 275 273 271 268 266 265 264 260 255 250 248 251 256 262 267 267 266 266 267 268 269 270 270 271 272 272 271 271 270 269 268 270 271 274 277 279 279 280 280 279 276 272 269 266 264 263
282 281 281 281 281 281 282 284 284 284 285 286 287 287 287 285 283 280 278 275 273 270 268 268 270 272 275 276 277 278 278 279 279 279 279 280 281 281 281 280 279 279 277 275 272 270 269 266 258 250 244 243 246 252 260 263 265 265 265 265 265 267 269 272 274 274 275 276 277 277 276 277 276 276 277 278 280 281 282 281 279 276 272 269 266 264
279 277 275 274 275 276 278 280 282 283 284 286 286 286 286 284 281 278 274 271 269 267 265 265 266 268 271 275 276 277 276 276 277 277 277 278 278 279 279 280 281 281 282 281 280 279 277 277 273 264 252 245 242 244 251 257 262 265 266 265 265 267 271 275 277 280 282 283 284 285 285 283 281 279 277 278 280 282 283 283 281 279 277 275 272 270